Find Starlink 30953

NORAD ID: 58491 Int'l Des: 2023-186 Owner: SPXS Country: US Constellation: starlink operational
LEOCIRCULAR

現在のビュー

3D地球を読み込み中...

About Starlink 30953

Starlink 30953 (NORAD 58491) is a starlink constellation satellite (v2 mini) launched Dec 3, 2023 by SPXS of US. It operates in LEO, CIRCULAR orbit with a mass of 730.00 kg.

次回通過

Passes for default location (London). Set your location on the main map for personalized predictions.

高度履歴

Loading altitude history...

軌道要素

1 58491U 23186U 26263.43311184 -.00002247 00000-0 -72193-4 0 9994
2 58491 42.9987 247.6998 0000651 302.0056 58.0732 15.27564741157674
Epoch: Sep 20, 2026 • Age: 25 hours

現在のステータス

高度 485.8 km
遠地点 / 近地点 N/A
速度 7.62 km/s
衛星直下点 -15.49°S, 53.22°E
打ち上げ日 Dec 3, 2023
運用期間 2.8 years
タイプ internet

技術仕様

分類 Payload
質量 730.00 kg
乾燥質量 700.00 kg
長さ 0.30 m
スパン 29.00 m
形状 ? Box + pan
製造者 SPXS
バスタイプ Starlink V2M
フェーズステータス In Orbit
所有者/国 SPXS/US

Most Searched